Find Starlink 37322

NORAD ID: 68716 Int'l Des: 2026-081 Owner: SPXS Country: US Constellation: starlink operational
LEOCIRCULAR

Live Position

Loading 3D Globe...

About Starlink 37322

Description loading...

Upcoming Passes

Passes for default location (London). Set your location on the main map for personalized predictions.

Altitude History

Loading altitude history...

Two-Line Element Set

1 68716C 26081S 26105.37062500 .00640640 00000+0 82464-3 0 1057
2 68716 53.1626 238.0653 0007269 303.2276 299.7961 16.06090750 15
Epoch: Apr 15, 2026 • Age: 17 hours

Current Status

Altitude 261.1 km
Velocity 7.75 km/s
Sub-Earth Point -33.41°S, 23.57°W
Launch Date Apr 14, 2026
Age 1 days
Type internet

Technical Details

Classification Payload
Mass 575.00 kg
Dry Mass 530.00 kg
Total Mass 575.00 kg
Length 0.30 m
Diameter 4.10 m
Span 29.00 m
Shape Box + pan
Manufacturer SPXS
Bus Type Starlink V2MO
Phase Status In Orbit
Owner/State SPXS/US

Most Searched